Preview of NWS' New Version of Forecast
This preview is not operational and should not be used for support decisions.

Regional Weather Roundup (RWR)

Issued by National Weather Service (NWS)

                            
000
ASUS46 KSEW 181710
RWRWA 

WASHINGTON REGIONAL WEATHER ROUNDUP
NATIONAL WEATHER SERVICE SEATTLE WA
1000 AM PDT THU APR 18 2019

NOTE:"FAIR" INDICATES FEW OR NO CLOUDS BELOW 12,000 FEET WITH NO 
SIGNIFICANT WEATHER AND/OR OBSTRUCTIONS TO VISIBILITY.

WAZ507-509-555>559-181800-
SEATTLE, TACOMA, EVERETT, AND VICINITY
  
CITY           SKY/WX    TMP DP  RH WIND       PRES   REMARKS
EVERETT        CLOUDY    51  47  86 SE8       30.24S                  
BOEING FIELD   CLOUDY    57  50  77 S7        30.24F                  
RENTON         CLOUDY    55  50  83 VRB5      30.24F                  
SEATAC AIRPORT CLOUDY    56  49  77 SE9       30.23F                  
JBLM-MCCHORD   CLOUDY    53  53 100 CALM      30.24F                  
PUYALLUP       CLOUDY    54  52  94 CALM      30.24F                  
BREMERTON      CLOUDY    52  50  93 SW8       30.24F                  
JBLM-FT LEWIS  CLOUDY    53  53 100 CALM      30.23F                  
TACOMA NARROWS CLOUDY    52  49  89 S3        30.25S                  
$$
 
WAZ001-503-506-510-514-515-181800-
NORTH INTERIOR
  
CITY           SKY/WX    TMP DP  RH WIND       PRES   REMARKS
BELLINGHAM     LGT RAIN  52  49  89 N5        30.22R FOG              
FRIDAY HARBOR  LGT RAIN  52  47  83 E5        30.22S                  
EASTSOUND      LGT RAIN  52  48  87 E5        30.20S                  
PORT ANGELES   CLOUDY    50  49  96 CALM      30.19F FOG              
EDIZ HOOK      CLOUDY    49  48  98 CALM      30.20S                  
PORT TOWNSEND  CLOUDY    54  52  94 SE10      30.19S                  
NAS WHIDBEY    LGT RAIN  56  47  71 E12       30.24S                  
ARLINGTON      LGT RAIN  55  47  74 E13       30.23F                  
BURLINGTON     PTSUNNY   55  48  76 E9        30.22S                  
$$
 
WAZ020-022-039-040-504-511-512-181800-
SOUTHWEST INTERIOR
  
CITY           SKY/WX    TMP DP  RH WIND       PRES   REMARKS
SHELTON        CLOUDY    55  50  83 E3        30.22S                  
OLYMPIA        CLOUDY    52  48  86 SW6       30.24F                  
CHEHALIS       PTSUNNY   55  50  82 S6        30.24F                  
KELSO          CLOUDY    53  47  79 S6        30.26S                  
VANCOUVER      PTSUNNY   55  46  71 CALM      30.26S                  
SCAPPOOSE, OR  CLOUDY    58  48  69 CALM      30.25F                  
PORTLAND, OR   PTSUNNY   57  47  69 CALM      30.26F                  
$$
 
WAZ021-516-517-181800-
WASHINGTON COAST
  
CITY           SKY/WX    TMP DP  RH WIND       PRES   REMARKS
FORKS          LGT RAIN  51  50  96 VRB5      30.19R FOG              
HOQUIAM        CLOUDY    53  53 100 E6        30.22F                  
ASTORIA, OR    CLOUDY    54  51  90 NE5       30.22F                  
$$
 
WAZ019-023-024-040-567>569-181800-
CASCADE MOUNTAINS AND COLUMBIA GORGE
  
CITY           SKY/WX    TMP DP  RH WIND       PRES   REMARKS
STAMPEDE PASS  CLOUDY    47  32  56 CALM      30.24F                  
TROUTDALE, OR  MOSUNNY   57  46  66 E8        30.25F                  
HOOD RIVER, OR PTSUNNY   55  41  58 MISG      30.26F                  
THE DALLES, OR SUNNY     57  45  64 N3        30.26S                  
$$

WAZ026-027-041>044-520-521-181800-
EAST SLOPES
  
CITY           SKY/WX    TMP DP  RH WIND       PRES   REMARKS
OMAK           LGT RAIN  52  42  69 SE3       30.24R                  
WENATCHEE      CLOUDY    54  39  57 W3        30.22R                  
ELLENSBURG     CLOUDY    55  40  56 CALM      30.23S                  
YAKIMA         MOSUNNY   58  43  57 CALM      30.23S                  
SUNNYSIDE ARPT SUNNY     60  45  58 CALM      30.22F                  
YAKIMA TC      FAIR      56  42  59 CALM      30.21F                  
$$

WAZ028-034-035-181800-
COLUMBIA BASIN
  
CITY           SKY/WX    TMP DP  RH WIND       PRES   REMARKS
EPHRATA        CLOUDY    54  41  61 N7        30.23S                  
MOSES LAKE     PTSUNNY   57  43  59 S3        30.24S                  
PASCO          SUNNY     65  44  46 VRB6      30.23F                  
RICHLAND ARPT  MOSUNNY   62  45  53 CALM      30.24                   
HERMISTON, OR  SUNNY     63  46  54 W5        30.24S                  
$$

WAZ036>038-181800-
NORTHEAST WASHINGTON
  
CITY           SKY/WX    TMP DP  RH WIND       PRES   REMARKS
SPOKANE GEIGER CLOUDY    51  39  63 S7        30.26F                  
SPOKANE FELTS  CLOUDY    56  38  50 SW5       30.26F                  
FAIRCHILD AFB  CLOUDY    49  42  77 SE8       30.25S                  
COEURDALENE,ID MOSUNNY   53  39  59 S9        30.27F                  
DEER PARK      CLOUDY    51  40  65 CALM      30.27F                  
$$

WAZ029>033-181800-
SOUTHEAST WASHINGTON
  
CITY           SKY/WX    TMP DP  RH WIND       PRES   REMARKS
PULLMAN        CLOUDY    54  41  61 E9        30.29F                  
LEWISTON, ID   CLOUDY    55  42  61 CALM      30.29S                  
WALLA WALLA    MOSUNNY   66  43  43 S10       30.24F                  
PENDLETON, OR  MOSUNNY   60  43  53 SE6       30.24F                  
$$